Wind_Speed
16 16 16 16 16 16 16 15 15 15 15 15 15 15 16 16 16 16 16 15 15 15 14 14 13 12 12 11 11 11 11 11 11 11 11 11 11 11 11 12 12 12 12
18 18 18 18 18 18 18 18 17 17 17 16 16 16 17 17 17 17 17 17 17 17 16 16 15 15 14 14 13 13 14 13 13 13 13 13 14 14 14 14 14 13 13
21 20 20 20 20 20 20 20 20 19 19 19 18 18 18 18 18 18 18 18 18 18 18 18 17 17 16 16 16 16 16 16 16 15 15 15 15 16 16 16 15 15 15
23 23 23 22 23 22 22 22 22 21 21 21 21 20 20 19 19 19 19 19 20 20 19 19 19 19 19 18 18 18 18 18 18 18 17 17 17 17 17 17 17 17 16
25 25 24 24 25 25 24 24 24 23 23 23 23 22 21 21 20 20 21 20 21 21 21 21 20 20 20 19 19 19 19 19 19 19 19 19 19 19 19 18 18 18 18
27 27 26 26 26 26 26 26 26 25 25 25 25 24 23 23 22 22 23 22 22 22 22 22 22 21 21 20 20 19 19 19 19 19 19 20 20 20 20 20 20 20 19
28 28 28 27 27 27 28 28 28 27 27 27 27 26 26 25 25 25 25 24 24 23 23 23 23 22 22 22 22 21 21 21 21 20 20 21 21 21 21 22 21 21 21
30 29 29 29 29 29 29 29 29 29 29 29 29 28 28 27 27 27 26 26 26 25 24 25 24 24 24 24 24 24 24 23 23 23 22 22 22 22 22 23 23 23 23
31 31 31 30 30 30 30 31 31 31 30 30 30 30 30 29 29 28 28 28 27 26 26 26 26 27 26 26 26 26 26 26 25 24 24 24 24 24 24 24 25 25 25
34 33 32 32 31 31 31 32 32 32 31 31 32 32 31 31 30 30 30 30 29 28 28 28 28 28 28 28 29 28 28 28 27 26 26 26 26 26 26 27 26 27 27
34 34 33 33 33 33 33 33 34 33 32 32 33 33 33 33 32 32 32 31 31 31 30 30 30 30 30 30 30 30 30 30 30 29 28 28 29 29 29 29 29 29 30
34 34 34 34 34 34 34 34 34 34 34 33 33 34 34 34 34 33 33 33 33 33 33 32 32 32 32 32 32 32 32 32 32 32 31 31 31 31 31 31 31 31 31
35 34 34 34 35 35 35 34 35 35 34 34 34 35 36 36 35 35 35 35 35 35 35 35 34 34 34 33 33 33 33 34 34 34 34 34 33 33 33 33 32 33 32
35 36 36 36 36 36 36 35 35 35 35 35 35 36 36 36 36 36 36 36 37 37 37 37 36 36 35 35 35 35 35 36 36 36 36 35 35 35 34 34 34 34 34
35 37 38 38 37 37 37 36 37 36 37 36 37 37 38 38 37 37 37 38 38 38 38 39 38 38 37 38 37 37 37 37 37 38 38 37 37 37 35 35 35 35 35
37 37 38 39 39 38 38 37 37 38 38 37 38 38 39 39 39 39 39 39 39 39 39 40 40 39 39 39 38 38 38 37 38 38 38 38 37 37 36 36 35 35 36
36 37 38 39 39 39 38 39 39 39 40 39 39 39 39 39 39 39 40 41 41 41 41 40 40 40 40 40 39 38 38 37 37 37 38 37 37 37 37 37 37 36 37
36 36 37 38 39 39 39 39 39 40 40 39 39 39 39 39 39 40 39 40 42 42 42 42 41 40 41 41 40 39 38 38 37 37 37 37 37 37 37 37 37 38 38
36 36 37 38 37 37 38 38 39 39 40 39 39 38 39 39 39 40 40 40 41 42 42 43 43 42 41 40 40 39 38 38 38 37 37 37 37 37 37 37 37 38 39
36 37 37 37 37 37 37 38 38 39 40 39 38 38 39 39 40 39 39 39 40 41 42 42 42 42 41 40 39 39 38 38 38 38 38 38 38 38 38 38 38 38 39
35 36 36 36 36 37 38 38 39 39 40 39 39 39 40 41 42 41 40 39 38 40 41 41 41 40 40 40 40 39 39 39 39 39 39 40 39 40 40 39 39 38 38
35 36 37 37 37 38 39 39 40 40 40 40 40 40 41 41 41 40 40 39 39 39 39 40 40 39 39 40 40 40 39 39 39 40 40 40 41 41 41 41 40 40 40
33 34 36 36 37 38 39 40 41 40 40 40 40 40 40 41 40 40 40 40 40 40 39 39 39 39 39 40 41 41 40 40 40 39 40 41 41 41 42 42 41 41 41
33 34 35 35 37 38 39 40 40 40 40 40 40 40 41 41 41 41 40 40 40 41 40 39 40 40 39 39 40 40 40 40 40 39 39 40 41 41 41 41 41 41 40
33 34 34 35 36 37 37 38 38 39 39 39 41 41 42 42 41 41 40 39 39 40 40 39 39 38 38 38 38 38 38 38 39 39 38 38 39 39 40 41 41 40 39
32 32 32 33 34 34 35 35 35 37 38 38 40 41 41 41 40 40 39 39 39 39 40 39 37 37 37 37 37 37 37 37 37 38 38 38 39 39 39 40 40 39 38
Wind_Direction
261 261 261 260 258 257 258 259 260 261 262 262 263 263 264 263 262 261 262 261 261 261 262 264 264 265 266 268 269 271 273 273 274 275 275 276 277 279 283 286 287 287 286
263 262 260 260 259 258 257 257 258 259 260 261 262 263 264 263 260 259 261 262 262 262 262 263 264 264 265 267 268 269 270 272 273 275 275 275 275 277 280 283 285 286 286
264 263 262 260 259 258 258 258 258 258 259 260 261 262 264 263 260 258 259 261 262 262 262 263 264 266 265 266 267 268 268 270 272 274 276 276 276 276 278 280 282 284 285
264 263 261 260 259 258 258 257 257 258 259 259 260 262 263 262 262 260 260 261 263 263 263 263 265 266 266 266 267 268 268 268 270 273 275 277 277 278 278 278 280 282 284
265 264 262 260 258 257 257 257 256 257 258 258 259 260 261 262 262 261 262 262 263 264 263 264 264 265 266 266 267 267 268 269 269 271 273 275 277 278 279 279 279 281 282
264 263 262 260 258 257 256 256 255 256 257 257 257 258 259 260 260 261 262 262 263 263 263 263 263 265 265 266 267 268 269 271 272 272 273 275 276 276 277 278 279 279 280
263 262 261 259 258 258 257 256 255 255 256 256 257 258 259 259 260 261 262 263 263 263 263 263 263 264 265 266 267 268 269 271 273 273 274 275 277 277 277 277 278 278 279
263 261 260 260 259 258 258 257 255 255 255 255 256 258 259 259 260 261 263 264 263 263 264 263 263 264 266 267 267 269 270 271 272 273 274 276 277 277 277 277 277 278 278
264 262 261 261 260 259 259 258 256 255 254 255 256 257 258 259 260 261 263 264 262 263 264 264 264 264 265 266 267 269 270 271 273 274 274 275 275 276 277 278 278 278 278
263 262 261 261 261 260 258 258 257 255 254 255 257 257 257 258 259 260 261 263 264 264 264 265 265 265 265 266 268 268 269 270 271 272 273 274 275 275 277 278 279 278 278
262 261 260 261 261 261 259 257 256 254 254 255 257 258 258 258 259 260 261 262 264 264 264 264 265 265 265 266 267 268 268 269 270 271 272 273 274 275 275 276 278 279 279
262 261 261 261 261 260 258 256 255 253 254 255 256 258 259 259 259 260 260 262 264 264 264 264 265 265 265 266 267 268 269 269 270 270 271 271 273 274 274 275 276 278 279
263 262 262 261 262 261 259 256 254 253 254 255 257 258 259 260 260 260 261 262 262 263 264 265 264 265 266 267 267 268 269 269 270 270 270 271 272 273 274 274 275 276 278
263 263 262 262 262 261 259 256 254 253 254 255 257 258 259 261 262 262 261 261 262 262 263 264 264 265 266 267 268 268 269 269 270 270 269 270 270 271 272 273 274 275 276
265 265 263 263 262 261 259 257 255 254 255 257 258 259 260 262 263 263 262 262 261 261 262 264 265 266 267 267 267 268 268 268 268 268 268 268 270 270 271 272 274 274 275
265 265 263 262 261 261 260 258 256 254 254 256 257 258 259 260 262 262 263 263 262 263 263 263 264 265 266 266 267 268 268 268 268 268 268 268 269 270 271 272 273 274 275
265 265 263 261 260 260 260 258 256 254 254 256 258 258 259 260 261 262 263 263 264 264 264 265 265 265 265 266 266 267 267 267 268 268 268 267 268 270 271 272 272 273 275
265 266 264 262 261 260 259 258 256 255 254 256 257 258 259 260 261 262 263 264 264 264 265 265 265 266 266 266 266 265 266 267 266 267 267 268 268 270 271 272 272 273 274
266 266 266 263 261 259 258 256 255 256 256 254 255 257 258 260 262 263 264 266 266 266 266 266 265 266 266 266 266 266 266 267 267 267 267 268 269 270 271 272 273 274 274
265 266 267 266 263 259 257 255 255 256 256 255 255 258 259 260 262 264 266 267 268 268 267 267 267 266 266 266 265 265 265 267 267 267 268 269 269 270 272 273 274 274 274
267 267 268 268 264 259 256 256 255 256 256 257 256 258 259 260 262 264 266 267 268 268 267 267 267 266 266 265 264 264 265 266 266 268 269 269 269 270 272 273 274 273 274
270 269 269 268 264 261 258 258 255 256 257 259 258 259 260 260 263 264 265 266 266 267 268 268 268 265 265 265 265 265 265 266 267 267 268 269 270 270 271 272 273 273 273
269 269 268 266 264 262 262 261 257 256 256 258 258 259 261 261 262 262 262 263 265 266 267 269 267 266 267 266 266 265 265 266 267 268 268 269 270 271 271 271 272 272 273
269 269 269 267 267 264 263 262 259 258 255 256 257 259 260 260 261 261 262 262 263 265 267 269 267 266 267 266 265 266 267 267 267 268 268 268 268 269 270 271 272 272 272
272 270 269 269 269 267 264 261 259 257 255 255 256 257 259 259 260 260 261 262 264 265 267 268 268 266 265 265 265 266 267 269 268 268 268 269 269 270 270 271 272 272 272
275 272 272 270 269 267 264 261 261 258 256 256 256 256 258 259 260 259 260 262 264 265 267 269 270 266 265 265 265 267 268 268 269 268 269 269 270 270 270 271 271 271 272
Height
5853 5853 5854 5854 5854 5854 5855 5855 5855 5856 5856 5857 5857 5857 5858 5858 5858 5858 5858 5858 5859 5859 5858 5858 5858 5858 5858 5858 5857 5857 5857 5856 5856 5856 5855 5855 5854 5854 5853 5852 5851 5851 5850
5850 5850 5850 5850 5851 5851 5851 5852 5852 5853 5853 5853 5854 5854 5854 5855 5855 5855 5855 5856 5856 5856 5856 5856 5856 5855 5855 5855 5855 5855 5854 5854 5854 5853 5853 5853 5852 5851 5851 5850 5849 5848 5848
5846 5846 5846 5846 5846 5847 5847 5848 5849 5849 5849 5850 5850 5851 5851 5851 5851 5852 5852 5852 5852 5853 5853 5853 5853 5852 5852 5852 5852 5852 5852 5852 5851 5851 5850 5850 5849 5849 5848 5847 5847 5846 5845
5840 5841 5841 5841 5841 5842 5843 5843 5844 5845 5846 5846 5847 5847 5847 5848 5848 5848 5849 5849 5849 5849 5849 5849 5849 5849 5849 5849 5849 5849 5849 5848 5848 5848 5847 5847 5846 5846 5845 5844 5844 5843 5842
5834 5835 5835 5836 5836 5837 5837 5838 5839 5840 5841 5842 5842 5843 5844 5844 5844 5845 5845 5845 5845 5845 5845 5845 5845 5845 5845 5845 5845 5845 5845 5845 5844 5844 5844 5844 5843 5843 5842 5841 5840 5840 5839
5828 5828 5829 5829 5830 5830 5831 5832 5833 5834 5835 5837 5837 5838 5839 5840 5840 5840 5841 5841 5841 5841 5841 5841 5841 5841 5841 5841 5841 5841 5841 5841 5841 5840 5840 5840 5839 5839 5838 5837 5837 5836 5835
5821 5821 5822 5823 5824 5824 5825 5826 5827 5828 5830 5831 5832 5833 5834 5835 5835 5835 5836 5836 5836 5836 5837 5837 5837 5837 5837 5837 5837 5837 5837 5837 5837 5836 5836 5836 5835 5835 5834 5833 5833 5832 5831
5814 5814 5815 5816 5817 5818 5818 5819 5820 5822 5823 5825 5826 5827 5828 5829 5830 5830 5831 5831 5831 5831 5832 5832 5832 5832 5832 5833 5833 5833 5833 5832 5832 5832 5831 5831 5831 5830 5829 5829 5828 5827 5827
5807 5807 5808 5808 5809 5810 5811 5812 5813 5815 5816 5818 5819 5820 5822 5823 5824 5825 5825 5825 5825 5826 5826 5826 5827 5827 5827 5827 5827 5828 5828 5827 5827 5827 5827 5826 5826 5825 5824 5824 5823 5822 5822
5799 5800 5800 5801 5802 5803 5804 5805 5806 5807 5809 5811 5812 5813 5815 5816 5817 5818 5819 5819 5820 5820 5820 5820 5821 5821 5821 5821 5821 5821 5822 5822 5822 5822 5821 5821 5820 5819 5819 5818 5817 5816 5816
5791 5792 5793 5793 5794 5795 5796 5797 5798 5800 5802 5803 5805 5806 5807 5809 5810 5811 5812 5813 5813 5814 5814 5814 5814 5814 5815 5815 5815 5815 5815 5816 5815 5816 5815 5815 5814 5813 5813 5812 5811 5810 5809
5783 5783 5784 5785 5785 5786 5787 5789 5790 5792 5794 5796 5797 5798 5800 5801 5803 5804 5805 5806 5806 5807 5807 5807 5807 5807 5808 5808 5808 5808 5809 5809 5809 5809 5808 5808 5807 5807 5806 5805 5804 5804 5803
5774 5774 5775 5776 5777 5777 5779 5780 5782 5784 5786 5787 5789 5790 5792 5793 5795 5796 5797 5798 5798 5798 5799 5799 5800 5800 5800 5801 5801 5801 5801 5801 5801 5801 5801 5800 5800 5799 5799 5798 5797 5796 5796
5765 5765 5766 5767 5767 5768 5769 5771 5773 5775 5778 5779 5781 5782 5784 5785 5786 5787 5788 5789 5790 5790 5791 5791 5792 5792 5792 5793 5792 5793 5793 5792 5793 5792 5792 5792 5791 5791 5791 5790 5789 5788 5788
5756 5756 5756 5757 5758 5759 5760 5762 5764 5766 5769 5771 5772 5774 5775 5777 5778 5778 5779 5780 5781 5781 5781 5782 5783 5783 5783 5783 5783 5783 5783 5783 5783 5783 5783 5783 5783 5782 5782 5782 5781 5780 5780
5746 5746 5746 5747 5748 5749 5751 5752 5755 5757 5760 5761 5763 5765 5766 5767 5768 5769 5770 5770 5771 5771 5772 5773 5773 5773 5774 5774 5774 5774 5773 5773 5773 5773 5773 5774 5774 5773 5773 5772 5772 5772 5771
5737 5736 5736 5736 5737 5739 5741 5743 5745 5748 5750 5751 5753 5755 5756 5757 5758 5759 5760 5760 5761 5761 5762 5763 5763 5763 5763 5763 5764 5764 5764 5763 5763 5763 5763 5764 5764 5764 5763 5763 5763 5762 5761
5727 5726 5726 5726 5727 5728 5730 5732 5735 5737 5739 5741 5743 5745 5746 5747 5748 5749 5749 5750 5751 5751 5751 5752 5753 5753 5754 5754 5754 5754 5754 5754 5754 5754 5754 5754 5754 5754 5753 5753 5753 5752 5752
5717 5716 5715 5715 5715 5717 5719 5722 5725 5727 5729 5731 5733 5735 5736 5737 5738 5739 5739 5740 5740 5740 5741 5741 5742 5743 5743 5744 5744 5744 5745 5744 5744 5744 5744 5744 5744 5744 5743 5743 5742 5742 5742
5707 5706 5705 5705 5705 5706 5709 5712 5715 5717 5719 5720 5722 5724 5726 5727 5728 5729 5729 5730 5729 5730 5730 5730 5731 5732 5732 5733 5733 5734 5734 5734 5734 5734 5734 5733 5733 5733 5733 5732 5732 5732 5731
5698 5697 5696 5696 5696 5698 5700 5702 5705 5707 5708 5710 5712 5714 5715 5716 5718 5719 5719 5719 5719 5719 5719 5719 5720 5721 5721 5722 5723 5723 5724 5723 5724 5723 5723 5722 5722 5722 5722 5721 5721 5721 5721
5689 5689 5688 5688 5688 5689 5690 5692 5694 5696 5698 5700 5702 5704 5705 5706 5707 5708 5709 5709 5709 5709 5709 5709 5710 5710 5711 5711 5712 5712 5713 5714 5712 5712 5712 5711 5711 5711 5710 5710 5710 5710 5710
5681 5680 5680 5680 5680 5680 5681 5682 5684 5685 5688 5690 5692 5693 5694 5695 5697 5698 5698 5699 5699 5699 5699 5699 5699 5699 5700 5699 5700 5701 5701 5702 5703 5702 5701 5700 5700 5699 5699 5698 5698 5698 5698
5673 5672 5671 5671 5671 5671 5672 5672 5673 5675 5678 5680 5682 5683 5684 5685 5686 5687 5688 5688 5689 5689 5689 5689 5688 5688 5688 5688 5688 5689 5689 5690 5690 5692 5691 5689 5688 5688 5687 5687 5687 5687 5687
5665 5664 5663 5662 5662 5662 5662 5662 5663 5664 5666 5668 5670 5672 5673 5674 5675 5676 5677 5678 5678 5679 5679 5678 5678 5677 5677 5677 5678 5678 5678 5678 5678 5679 5680 5679 5678 5677 5676 5676 5676 5676 5676
5657 5655 5654 5654 5653 5653 5652 5652 5653 5654 5656 5658 5659 5661 5662 5664 5664 5665 5667 5668 5668 5668 5668 5668 5667 5667 5667 5667 5667 5667 5668 5668 5667 5667 5668 5668 5668 5667 5666 5665 5666 5666 5666